Total_Precipitation_Accumulation
1.83 2.30 2.85 3.70 4.80 5.75 6.05 5.56 5.11 4.82 4.43 4.08 3.49 3.18 3.29 3.27 3.02 2.70 2.37 2.31 2.22 2.29 2.51 2.28 2.50 2.34 2.46 2.58 2.68 2.89 2.97 2.84 2.89 3.08 3.03 2.60 2.26 2.19 2.15 2.24 2.50 2.36 2.31
2.01 2.74 3.76 4.35 4.63 4.77 4.52 4.21 3.99 3.81 3.33 3.10 3.01 2.83 2.91 2.68 2.52 2.42 2.49 2.10 1.99 2.06 2.05 2.35 2.36 2.38 2.60 2.61 2.62 2.83 2.79 2.58 2.64 2.97 3.21 2.86 2.62 2.18 1.65 1.79 1.82 1.91 2.16
2.19 3.02 3.61 3.74 3.50 3.16 3.03 3.00 3.11 2.88 2.77 2.85 2.80 2.75 2.86 2.59 2.40 2.34 2.43 2.04 1.77 1.78 1.91 2.05 2.22 2.45 2.36 2.56 2.65 2.55 2.65 2.70 2.65 2.69 3.10 3.05 2.84 2.39 1.79 1.54 1.59 1.76 2.00
1.75 2.19 2.46 2.36 2.46 2.59 2.61 2.74 2.85 2.60 2.61 2.59 2.35 2.30 2.28 2.19 2.16 2.19 2.28 2.32 1.91 1.72 1.73 1.86 2.07 2.28 2.19 2.47 2.23 2.37 2.66 2.76 2.59 2.52 2.46 2.50 2.61 2.70 2.29 1.82 1.55 1.63 1.74
1.23 1.36 1.47 1.59 1.79 1.92 2.10 2.37 2.64 2.59 2.43 2.27 2.27 2.35 2.20 2.22 2.22 2.25 2.35 2.43 2.20 1.90 1.72 1.83 2.04 2.15 2.11 2.17 2.20 2.57 2.56 2.50 2.46 2.48 2.51 2.44 2.41 2.33 2.37 2.15 1.83 1.64 1.41
1.08 1.16 1.19 1.30 1.47 1.63 1.85 2.09 2.42 2.49 2.40 2.26 2.20 2.28 2.35 2.36 2.31 2.36 2.35 2.16 2.11 2.08 1.90 1.90 2.04 2.01 1.98 2.01 2.09 2.37 2.38 2.49 2.56 2.57 2.44 2.48 2.35 2.29 2.47 2.15 1.83 1.67 1.21
1.03 1.16 1.16 1.15 1.22 1.38 1.51 1.58 1.81 2.08 2.21 2.17 2.15 2.18 2.36 2.30 2.13 2.06 2.04 2.02 1.83 1.77 1.83 1.91 2.08 1.93 1.86 1.93 2.18 2.31 2.31 2.44 2.46 2.36 2.25 2.21 2.00 2.14 2.28 2.12 1.72 1.61 1.27
0.96 1.07 1.07 1.01 1.03 1.12 1.30 1.44 1.72 1.89 2.08 2.10 2.08 2.12 2.20 2.11 1.96 1.98 1.79 1.79 1.74 1.65 1.72 1.82 1.84 1.82 1.84 1.84 2.24 2.13 2.18 2.30 2.19 2.02 2.34 2.21 1.88 2.07 2.18 2.24 2.37 2.06 1.73
0.79 0.91 0.94 1.04 1.08 1.05 1.14 1.31 1.63 1.93 2.15 2.22 2.25 2.20 2.20 2.19 2.13 2.06 1.83 1.66 1.80 1.69 1.77 1.84 1.85 1.87 2.02 2.16 2.36 2.20 2.23 2.34 2.11 2.13 2.42 2.24 2.03 2.06 2.09 2.31 2.61 2.67 2.23
0.78 0.99 1.14 1.13 1.02 0.91 0.96 1.14 1.44 1.90 2.16 2.30 2.24 2.09 2.24 2.16 2.12 2.05 1.87 1.72 1.71 1.74 1.88 2.03 2.01 2.07 2.12 2.24 2.35 2.15 2.26 2.28 2.17 2.25 2.47 2.43 2.26 2.29 2.22 2.31 2.52 2.73 2.60
0.84 1.06 1.31 1.23 0.96 0.85 0.85 1.01 1.36 1.70 1.92 2.07 2.13 1.99 1.94 1.87 1.88 1.90 1.86 1.85 1.85 1.81 1.84 1.98 2.04 2.01 2.06 2.16 2.25 2.07 2.15 2.15 2.19 2.21 2.32 2.37 2.55 2.55 2.47 2.59 2.65 2.68 2.73
0.92 0.98 1.14 1.26 1.14 1.00 0.94 1.12 1.40 1.60 1.72 1.80 1.84 1.83 1.83 1.81 1.72 1.68 1.76 1.83 1.75 1.68 1.74 1.82 1.82 1.75 1.87 2.06 2.08 1.99 2.07 2.13 2.12 2.29 2.53 2.46 2.56 2.63 2.66 2.84 2.67 2.70 2.97
0.76 0.80 0.94 1.08 1.19 1.15 1.14 1.29 1.45 1.53 1.57 1.52 1.56 1.58 1.60 1.56 1.54 1.55 1.61 1.69 1.72 1.72 1.72 1.71 1.66 1.66 1.74 1.86 1.87 2.03 2.16 2.18 2.25 2.43 2.55 2.63 2.87 2.71 2.76 2.77 2.70 2.72 2.93
0.77 0.78 0.87 1.08 1.16 1.23 1.22 1.24 1.37 1.51 1.50 1.42 1.47 1.62 1.68 1.70 1.72 1.68 1.72 1.82 1.91 1.85 1.87 1.87 1.89 1.92 1.90 1.93 2.03 2.17 2.27 2.31 2.39 2.57 2.63 2.67 2.77 2.84 3.01 2.98 3.02 3.16 3.31
0.81 0.81 0.89 1.08 1.21 1.38 1.41 1.37 1.38 1.45 1.59 1.68 1.74 1.91 2.07 2.10 2.01 1.98 2.06 2.11 2.15 2.07 2.24 2.25 2.28 2.36 2.30 2.10 2.28 2.39 2.40 2.64 2.62 2.68 2.65 2.61 2.77 2.89 3.03 2.86 3.04 3.37 3.51
0.82 0.77 0.87 1.08 1.15 1.19 1.27 1.30 1.36 1.42 1.49 1.56 1.71 1.91 2.11 2.20 2.18 2.24 2.40 2.42 2.36 2.47 2.61 2.57 2.56 2.52 2.20 2.38 2.52 2.53 2.63 2.75 2.72 2.69 2.73 2.67 2.64 2.55 2.58 2.63 2.76 3.02 3.18
0.84 0.82 0.83 0.95 1.16 1.11 1.12 1.26 1.36 1.50 1.63 1.87 2.05 2.12 2.24 2.37 2.38 2.37 2.43 2.46 2.50 2.52 2.60 2.61 2.66 2.51 2.48 2.61 2.44 2.46 2.45 2.55 2.65 2.70 2.74 2.47 2.27 2.38 2.24 2.42 2.52 2.48 2.53
1.12 1.16 1.22 1.23 1.32 1.28 1.28 1.37 1.50 1.66 1.73 1.81 1.97 2.08 2.26 2.38 2.50 2.61 2.62 2.69 2.80 2.83 2.83 2.80 2.80 2.73 2.60 2.59 2.37 2.47 2.35 2.35 2.40 2.47 2.51 2.44 2.31 2.27 2.40 2.42 2.29 2.05 1.99
1.19 1.32 1.38 1.41 1.42 1.48 1.60 1.76 1.80 1.94 2.08 2.15 2.29 2.39 2.45 2.59 2.66 2.71 2.85 2.98 3.08 3.07 3.08 3.05 3.01 2.95 2.95 2.92 2.61 2.53 2.32 2.37 2.38 2.43 2.43 2.38 2.20 2.34 2.29 2.23 2.16 2.00 1.83
1.31 1.40 1.42 1.47 1.67 1.73 1.79 1.95 2.14 2.27 2.45 2.61 2.72 2.81 2.88 2.91 2.87 2.87 2.97 3.04 3.10 3.10 3.11 3.02 3.04 2.97 2.94 3.06 2.80 2.60 2.33 2.35 2.39 2.48 2.50 2.51 2.30 2.33 2.26 2.18 2.17 2.01 1.89
1.48 1.50 1.53 1.61 1.75 1.83 1.90 2.09 2.39 2.65 2.85 2.89 2.95 2.99 3.06 3.19 3.29 3.33 3.14 2.98 2.98 3.06 3.15 3.12 3.15 3.14 3.08 3.07 2.70 2.54 2.41 2.42 2.44 2.39 2.35 2.41 2.45 2.17 2.01 1.94 1.90 1.96 2.05
1.68 1.70 1.73 1.77 1.82 1.97 2.12 2.25 2.50 2.62 2.80 2.85 2.96 3.02 3.02 2.93 2.94 3.20 3.25 3.19 3.10 3.00 3.02 3.11 3.03 2.94 2.89 2.73 2.40 2.18 2.17 2.24 2.24 2.23 2.24 2.29 2.30 2.03 1.81 1.62 1.57 1.66 1.69
1.63 1.63 1.69 1.83 1.86 1.90 2.09 2.37 2.45 2.50 2.53 2.65 2.77 2.95 3.01 3.04 2.98 2.96 3.02 3.03 2.97 2.83 2.66 2.71 2.75 2.75 2.75 2.61 2.31 2.01 1.91 1.95 1.89 1.96 2.18 2.23 2.09 1.90 1.74 1.64 1.60 1.51 1.40
1.63 1.68 1.63 1.65 1.78 1.90 2.08 2.17 2.21 2.33 2.55 2.64 2.65 2.71 2.76 2.78 2.84 2.92 2.86 2.83 2.83 2.78 2.65 2.66 2.69 2.69 2.62 2.40 2.12 1.95 1.86 1.83 1.80 1.90 2.10 2.20 2.18 2.00 1.85 1.75 1.59 1.40 1.37
1.54 1.63 1.71 1.74 1.81 1.89 2.04 2.18 2.23 2.27 2.39 2.40 2.33 2.38 2.51 2.57 2.60 2.73 2.79 2.65 2.57 2.63 2.55 2.61 2.79 2.72 2.47 2.28 2.11 1.87 1.79 1.80 1.90 1.96 2.05 2.20 2.25 2.19 2.05 1.90 1.75 1.61 1.50
1.50 1.64 1.71 1.80 1.84 1.87 1.96 2.01 2.06 2.19 2.31 2.37 2.36 2.34 2.40 2.50 2.57 2.54 2.59 2.62 2.38 2.34 2.21 2.24 2.32 2.34 2.22 2.11 2.02 1.89 1.82 1.79 1.82 1.80 1.88 2.15 2.22 2.25 2.21 2.08 1.89 1.73 1.61